Glendive, MT

10:21 AM MST on February 23, 2017 (GMT -0700)
Dawson Community

Weather History for KGDV - November, 2013

Change the Weather History Date:

Tuesday, November 26, 2013

  Actual Average Record
Temperature  
Mean Temperature 14 °F -  
Max Temperature 24 °F 35 °F 60 °F (1998)
Min Temperature 3 °F 17 °F -4 °F (2015)
Degree Days  
Heating Degree Days 52    
Moisture  
Dew Point 10 °F    
Average Humidity 75    
Maximum Humidity 100    
Minimum Humidity 59    
Precipitation  
Precipitation 0.00 in - - ()
Sea Level Pressure  
Sea Level Pressure 30.34 in    
Wind  
Wind Speed 5 mph (East)    
Max Wind Speed 9 mph    
Max Gust Speed -    
Visibility 10 miles    
Events      
Averages and records for this station are not official NWS values.
T = Trace of Precipitation, MM = Missing Value Source: NWS Daily Summary

Daily Weather History Graph

Daily Weather History Graph

Search for Another Location

Airport or City:

Trip Planner

Search our weather history database for the weather conditions in past years. The results will help you decide how hot, cold, wet, or windy it might be!

Date:

Astronomy

Nov. 26, 2013 Rise Set
Actual Time 7:18 AM MST 4:14 PM MST
Civil Twilight 6:44 AM MST 4:48 PM MST
Nautical Twilight 6:06 AM MST 5:26 PM MST
Astronomical Twilight 5:29 AM MST 6:03 PM MST
Moon No Moon Rise 12:45 PM MST (11/26)
Length of Visible Light 10h 04m
Length of Day
8h 55m
Last Quarter, 40% of the Moon is Illuminated
Nov 26
Last Quarter
Dec 2
New
Dec 9
First Quarter
Dec 17
Full
Dec 25
Last Quarter

Hourly Weather History & Observations

Time (MST) Temp. Windchill Dew Point Humidity Pressure Visibility Wind Dir Wind Speed Gust Speed Precip Events Conditions
12:35 AM 19.4 °F 11.5 °F 15.8 °F 86% 30.42 in 10.0 mi NNW 5.8 mph - N/A   Overcast
12:55 AM 19.4 °F 9.5 °F 15.8 °F 86% 30.43 in 10.0 mi NNW 8.1 mph - N/A   Overcast
1:15 AM 19.4 °F 9.5 °F 15.8 °F 86% 30.43 in 10.0 mi NW 8.1 mph - N/A   Overcast
1:35 AM 19.4 °F 14.3 °F 14.0 °F 80% 30.44 in 10.0 mi North 3.5 mph - N/A   Overcast
1:55 AM 19.4 °F - 14.0 °F 80% 30.44 in 10.0 mi Calm Calm - N/A   Overcast
2:15 AM 19.4 °F 10.4 °F 15.8 °F 86% 30.44 in 10.0 mi NNW 6.9 mph - N/A   Overcast
2:55 AM 14.0 °F - 8.6 °F 79% 30.44 in 10.0 mi Calm Calm - N/A   Clear
3:15 AM 15.8 °F 8.6 °F 12.2 °F 86% 30.45 in 10.0 mi North 4.6 mph - N/A   Scattered Clouds
3:35 AM 15.8 °F 8.6 °F 10.4 °F 79% 30.45 in 10.0 mi NNW 4.6 mph - N/A   Partly Cloudy
3:55 AM 8.6 °F 0.1 °F 3.2 °F 79% 30.45 in 10.0 mi NNW 4.6 mph - N/A   Clear
4:15 AM 8.6 °F 0.1 °F 6.8 °F 92% 30.45 in 10.0 mi NNW 4.6 mph - N/A   Mostly Cloudy
4:35 AM 6.8 °F -2.0 °F 1.4 °F 79% 30.46 in 10.0 mi NW 4.6 mph - N/A   Mostly Cloudy
4:55 AM 8.6 °F -1.3 °F 1.4 °F 73% 30.45 in 10.0 mi NNW 5.8 mph - N/A   Partly Cloudy
5:15 AM 3.2 °F -11.3 °F -7.6 °F 61% 30.45 in 10.0 mi NNW 9.2 mph - N/A   Clear
5:35 AM 8.6 °F -3.7 °F 8.6 °F 100% 30.45 in 10.0 mi NNW 8.1 mph - N/A   Clear
5:55 AM 8.6 °F -4.7 °F 6.8 °F 92% 30.46 in 10.0 mi NNW 9.2 mph - N/A   Clear
6:15 AM 6.8 °F -6.9 °F 1.4 °F 79% 30.45 in 10.0 mi NNW 9.2 mph - N/A   Clear
6:55 AM 6.8 °F -4.8 °F 3.2 °F 85% 30.46 in 10.0 mi NNW 6.9 mph - N/A   Clear
7:15 AM 3.2 °F - -5.8 °F 66% 30.47 in 10.0 mi Calm Calm - N/A   Clear
7:55 AM 3.2 °F - 3.2 °F 100% 30.47 in 10.0 mi Calm Calm - N/A   Clear
8:15 AM 5.0 °F -2.1 °F 1.4 °F 85% 30.48 in 10.0 mi SW 3.5 mph - N/A   Clear
8:35 AM 8.6 °F - 3.2 °F 79% 30.49 in 10.0 mi Calm Calm - N/A   Clear
8:55 AM 12.2 °F - 12.2 °F 100% 30.49 in 10.0 mi Calm Calm - N/A   Clear
9:15 AM 14.0 °F - 12.2 °F 93% 30.49 in 10.0 mi Calm Calm - N/A   Clear
9:35 AM 17.6 °F 12.3 °F 14.0 °F 86% 30.49 in 10.0 mi South 3.5 mph - N/A   Clear
10:15 AM 17.6 °F 12.3 °F 12.2 °F 79% 30.49 in 10.0 mi SSE 3.5 mph - N/A   Clear
10:55 AM 17.6 °F 10.7 °F 12.2 °F 79% 30.48 in 10.0 mi South 4.6 mph - N/A   Clear
11:15 AM 19.4 °F 12.8 °F 12.2 °F 74% 30.46 in 10.0 mi SE 4.6 mph - N/A   Clear
11:35 AM 19.4 °F 12.8 °F 14.0 °F 80% 30.45 in 10.0 mi SSE 4.6 mph - N/A   Clear
11:55 AM 19.4 °F 10.4 °F 14.0 °F 80% 30.44 in 10.0 mi SSE 6.9 mph - N/A   Clear
12:15 PM 21.2 °F 13.6 °F 12.2 °F 68% 30.43 in 10.0 mi SSE 5.8 mph - N/A   Clear
12:35 PM 21.2 °F 16.4 °F 14.0 °F 74% 30.42 in 10.0 mi SSE 3.5 mph - N/A   Clear
1:15 PM 23.0 °F 15.8 °F 14.0 °F 68% 30.40 in 10.0 mi South 5.8 mph - N/A   Clear
1:35 PM 23.0 °F 18.4 °F 14.0 °F 68% 30.39 in 10.0 mi SSE 3.5 mph - N/A   Clear
1:55 PM 21.2 °F 13.6 °F 12.2 °F 68% 30.37 in 10.0 mi East 5.8 mph - N/A   Clear
2:15 PM 21.2 °F 16.4 °F 14.0 °F 74% 30.37 in 10.0 mi ENE 3.5 mph - N/A   Clear
2:35 PM 21.2 °F 16.4 °F 14.0 °F 74% 30.35 in 10.0 mi East 3.5 mph - N/A   Clear
2:55 PM 23.0 °F 15.8 °F 14.0 °F 68% 30.34 in 10.0 mi ENE 5.8 mph - N/A   Clear
3:15 PM 23.0 °F 17.0 °F 12.2 °F 63% 30.33 in 10.0 mi ENE 4.6 mph - N/A   Clear
3:35 PM 21.2 °F 16.4 °F 12.2 °F 68% 30.32 in 10.0 mi ENE 3.5 mph - N/A   Clear
3:55 PM 21.2 °F 14.9 °F 12.2 °F 68% 30.31 in 10.0 mi ENE 4.6 mph - N/A   Clear
4:15 PM 19.4 °F 12.8 °F 12.2 °F 74% 30.30 in 10.0 mi East 4.6 mph - N/A   Clear
4:35 PM 19.4 °F 11.5 °F 10.4 °F 68% 30.29 in 10.0 mi East 5.8 mph - N/A   Clear
4:55 PM 19.4 °F 11.5 °F 10.4 °F 68% 30.28 in 10.0 mi East 5.8 mph - N/A   Clear
5:15 PM 19.4 °F 11.5 °F 10.4 °F 68% 30.27 in 10.0 mi ENE 5.8 mph - N/A   Clear
5:35 PM 19.4 °F 11.5 °F 10.4 °F 68% 30.26 in 10.0 mi ENE 5.8 mph - N/A   Clear
5:55 PM 19.4 °F 10.4 °F 10.4 °F 68% 30.24 in 10.0 mi East 6.9 mph - N/A   Clear
6:15 PM 19.4 °F 9.5 °F 10.4 °F 68% 30.23 in 10.0 mi East 8.1 mph - N/A   Clear
6:55 PM 17.6 °F 10.7 °F 10.4 °F 73% 30.22 in 10.0 mi East 4.6 mph - N/A   Clear
7:15 PM 17.6 °F 9.3 °F 10.4 °F 73% 30.20 in 10.0 mi SE 5.8 mph - N/A   Clear
7:35 PM 21.2 °F 14.9 °F 12.2 °F 68% 30.20 in 10.0 mi SSE 4.6 mph - N/A   Clear
7:55 PM 23.0 °F 13.9 °F 12.2 °F 63% 30.18 in 10.0 mi South 8.1 mph - N/A   Clear
8:15 PM 23.0 °F 17.0 °F 12.2 °F 63% 30.17 in 10.0 mi South 4.6 mph - N/A   Clear
8:35 PM 21.2 °F - 12.2 °F 68% 30.16 in 10.0 mi Calm Calm - N/A   Clear
8:55 PM 23.0 °F 15.8 °F 12.2 °F 63% 30.14 in 10.0 mi SSE 5.8 mph - N/A   Clear
9:15 PM 23.0 °F - 12.2 °F 63% 30.13 in 10.0 mi Calm Calm - N/A   Clear
9:35 PM 23.0 °F 17.0 °F 12.2 °F 63% 30.13 in 10.0 mi South 4.6 mph - N/A   Clear
9:55 PM 24.8 °F 16.9 °F 12.2 °F 59% 30.12 in 10.0 mi South 6.9 mph - N/A   Clear
10:15 PM 23.0 °F 17.0 °F 14.0 °F 68% 30.11 in 10.0 mi South 4.6 mph - N/A   Clear
10:35 PM 23.0 °F 17.0 °F 14.0 °F 68% 30.10 in 10.0 mi South 4.6 mph - N/A   Clear
10:56 PM 23.0 °F 18.4 °F 12.2 °F 63% 30.09 in 10.0 mi South 3.5 mph - N/A   Clear
11:15 PM 21.2 °F - 12.2 °F 68% 30.08 in 10.0 mi Calm Calm - N/A   Clear
11:35 PM 21.2 °F - 12.2 °F 68% 30.07 in 10.0 mi Calm Calm - N/A   Clear
11:55 PM 21.2 °F - 10.4 °F 63% 30.06 in 10.0 mi Calm Calm - N/A   Clear